Powrót do katalogu

FENGYUN 1C DEB

AktywnySSO
NORAD 30450·DEBRIS·🇨🇳 China

Wystrzelony May 10, 1999 z Taiyuan Satellite Launch Center

Loading…

Następne Przeloty (najbliższe 24 godziny)

TLE

ŚwieżeSource: Space-Track

Epoka: Sep 14, 2026, 00:24 UTC

1 30450U 99025AFM 26257.01710569  .00002641  00000-0  40266-3 0  9992
2 30450  98.0709 270.3398 0185602  62.8671   0.7897 14.63733165 35616

Śledź FENGYUN 1C DEB w czasie rzeczywistym z AllMySat

Download on the App Store